STARLINK-30560, 58038

Orbit data source: Space-Track

STARLINK-30560, 58038 is a payload satellite owned by SpaceX/Seattle (US) in LEO that was launched on Mon, 09 Oct 2023 UTC via an FALCON 9 launch vehicle from the Air Force Western Test Range (AFWTR). Payload-class satellites include a variety of spacecraft equipped with specific instruments for various scientific and technological missions. These include communications satellites like Starlink; space stations such as the ISS; scientific satellites like the Hubble; Earth observation satellites from companies like Planet Labs, Umbra, and HawkEye 360; GPS; miniature CubeSats for education and research; and military/defense satellites.

Loading next visibility...
Identifier
58038, 2023-156L
Orbit
LEO
Country
Flag of USUS
Related business
Manufacturer
SpaceX/Seattle
Mission
Operational Commercial Communications
Bus & Motor
STARLINK V2M, Unknown motor
Mass
730 kg wet, ~700 kg dry
Launch date (UTC)
2023-10-09 (2 years ago)
Launch vehicle
FALCON 9
Launch site
Air Force Western Test Range (AFWTR)
Object type
Payload
Rocket body
Debris
Shape & HBR
Box + 2 Pan, 17.7 m
Radar Cross Section
33.884 m², Large (>1 m²)

Expand to show TLE details & history
Last TLE update: 1 day ago

TLE from 1 day ago
0 STARLINK-30560
1 58038U 23156L   25348.63507855 -.00000736  00000-0 -12751-4 0  9990
2 58038  53.1619 110.6057 0001320  68.3097 291.8044 15.30175148123289
Epoch: 2025-12-14T15:14Z
TLE epoch observation values (Epoch: 2025-12-14T15:14:30.786Z)
Latitude
-0.00005°
Longitude
158.43222°
Altitude
475.853 km
Speed
7.629 km/s
True Right ascension
07h 22m 25s
True Declination
0° 00' 00"
Sunlit
Object was in full shadow at epoch
Visualization orbit readout
Latitude
Unknown
Longitude
Unknown
Altitude
Unknown
Speed
Unknown
Apparent Right ascension
Unknown
Apparent Declination
Unknown
Sunlit
N/A
Visualization observer readout
Local Sidereal Time
13:24:34
Azimuth
Unknown
Elevation
Unknown
Doppler factor
Unknown
Orbital elements
Apogee altitude
476.45 km
Perigee altitude
474.641 km
Semi-major axis
6,853.682 km
Eccentricity
0.00013
Inclination
53.1619°
RAAN
110.6057°
Arg. of periapsis
68.3097°
True anomaly
291.79036°
Mean anomaly
291.8044°
Eccentric anomaly
291.79738°
Mean motion
3.82523 °/min
Orbital period
94.11 mins
BSTAR
-0.000012751
Loading maneuver chart data...
Computing Atmospheric mass density...
Loading historical data...
Loading historical data...
Loading historical data...
Loading historical data...
Loading historical data...
Loading historical data...
Loading historical data...

Documentation

Showing up to 5 results
|